Home > Time Zones > World Clock > Weather > Italy > Genoa > Past weeks

Flag for Italy Weather past 2 weeks in Genoa, Italy

Now
75 °F

Partly sunny.


Feels Like: 75 °F
Forecast: 68 / 79 °F
Wind: 7 mph from Southeast

Location: Genova / Sestri

Current Time: Sep 21, 2014 at 12:07:12 PM

Latest Report: Sep 21, 2014 at 11:20 AM


Visibility: N/A

Pressure: 29.98 "Hg

Humidity: 89%

Dew point: 72 °F

Location of GenoaLocation

Historic Weather in Genoa — Graph

°F

Genoa temperature yesterday

Maximum temperature yesterday: 77 °F (at 12:20 PM)
Minimum temperature yesterday: 66 °F (at 6:50 AM)
Average temperature yesterday: 71 °F

Past Weeks' High & Low Weather Summary

 TemperatureHumidityPressure
High81 °F (Sep 12, 3:20 PM)94% (Sep 9, 11:50 PM)30.07 "Hg (Sep 9, 11:50 PM)
Low64 °F (Sep 12, 6:20 AM)30% (Sep 12, 4:20 PM)29.77 "Hg (Sep 11, 5:20 AM)
Average71 °F77%29.95 "Hg
* Reported Sep 6 10:20 AM — Sep 21 10:50 AM, Genoa, Weather by CustomWeather, © 2014

Note: Actual official high and low records may vary slightly from our data, if they occured in-between our weather recording intervals... More about our weather records

Advertising

Genoa weather history for previous 24 hours

 ConditionsComfort  
Time TempWeatherWind HumidityBarometerVisibility
10:50 AM
Sep 21
75 °FPartly sunny.6 mph89%29.98 "HgN/A
10:20 AM75 °FPartly sunny.10 mph83%29.98 "HgN/A
9:50 AM73 °FPartly sunny.7 mph89%29.98 "HgN/A
9:20 AM73 °FPartly sunny.No wind83%29.98 "HgN/A
8:50 AM73 °FPartly sunny.2 mph83%29.98 "HgN/A
8:20 AM72 °FScattered clouds.5 mph88%29.98 "HgN/A
7:50 AM72 °FPassing clouds.3 mph88%29.98 "HgN/A
6:50 AM72 °FPassing clouds.5 mph88%29.98 "HgN/A
6:20 AM72 °FPassing clouds.3 mph88%29.98 "HgN/A
5:50 AM72 °FPassing clouds.5 mph88%29.98 "HgN/A
5:20 AM72 °FPassing clouds.7 mph88%29.98 "HgN/A
4:50 AM72 °FPassing clouds.5 mph88%29.98 "HgN/A
4:20 AM72 °FLight rain. Passing clouds.5 mph88%29.98 "HgN/A
3:50 AM72 °FLight rain. Passing clouds.3 mph83%30.01 "HgN/A
3:20 AM72 °FPartly cloudy.2 mph83%30.01 "HgN/A
2:50 AM72 °FPartly cloudy.3 mph83%30.01 "HgN/A
2:20 AM72 °FPartly cloudy.5 mph83%30.01 "HgN/A
1:50 AM72 °FPartly cloudy.3 mph83%30.01 "HgN/A
1:20 AM72 °FPartly cloudy.5 mph83%30.01 "HgN/A
12:50 AM72 °FPartly cloudy.5 mph83%30.01 "HgN/A
12:20 AM72 °FPartly cloudy.2 mph83%30.01 "HgN/A
11:50 PM
Sep 20
72 °FPartly cloudy.5 mph83%30.01 "HgN/A
11:20 PM73 °FPartly cloudy.3 mph74%30.01 "HgN/A
10:20 PM73 °FPassing clouds.5 mph78%30.01 "HgN/A
9:50 PM73 °FPassing clouds.3 mph74%30.01 "HgN/A
9:20 PM73 °FPassing clouds.3 mph74%30.01 "HgN/A
8:50 PM73 °FPassing clouds.2 mph74%30.01 "HgN/A
8:20 PM73 °FPartly sunny.2 mph78%30.01 "HgN/A
7:50 PM73 °FPartly sunny.2 mph78%30.01 "HgN/A
3:20 PM75 °FPartly sunny.3 mph74%30.01 "HgN/A
2:50 PM75 °FPartly sunny.3 mph74%30.01 "HgN/A
2:20 PM77 °FPartly sunny.3 mph69%30.01 "HgN/A
1:50 PM77 °FPartly sunny.2 mph69%30.01 "HgN/A
1:20 PM75 °FPartly sunny.2 mph69%30.01 "HgN/A
12:50 PM75 °FPartly sunny.6 mph65%30.01 "HgN/A
12:20 PM77 °FScattered clouds.5 mph69%30.01 "HgN/A
Weather by CustomWeather, © 2014

See weather overviewHow to use our weather pages